Regional Weather Roundup
Issued by NWS

Home | Current Version | Previous Version | Text Only | Print | Product List | Glossary Off
Versions: 1 2 3 4 5 6 7 8 9 10 11 12 13 14 15 16 17 18 19 20 21 22 23 24 25 26 27 28 29 30 31 32 33 34 35 36 37 38 39 40 41 42 43 44 45 46 47 48 49 50

000
ASUS43 KLOT 300321
RWRIL

ILLINOIS REGIONAL WEATHER ROUNDUP
NATIONAL WEATHER SERVICE CHICAGO/ROMEOVILLE IL
1000 PM CDT WED JUL 29 2015

NOTE: "FAIR" INDICATES FEW OR NO CLOUDS BELOW 12,000 FEET WITH NO
SIGNIFICANT WEATHER AND/OR OBSTRUCTIONS TO VISIBILITY.

* THESE STATIONS ARE NOT UNDER NWS QUALITY CONTROL. THEY ALSO MAY NOT
  REPORT WEATHER SUCH AS PRECIPITATION OR FOG.

ILZ001-002-007-009-015-016-024-300400-
NORTHWEST ILLINOIS

CITY           SKY/WX    TMP DP  RH WIND       PRES   REMARKS
MOLINE         CLEAR     69  61  75 SW5       30.07R
STERLING*      CLEAR     68  61  77 W6        30.05S
SAVANNA*       CLEAR     74  58  56 W3        30.05R
$$

ILZ003-004-008-010-011-017-018-300400-
NORTH CENTRAL ILLINOIS

CITY           SKY/WX    TMP DP  RH WIND       PRES   REMARKS
ROCKFORD       CLEAR     69  58  67 W7        30.05R
FREEPORT*      CLEAR     64  58  80 SW7       30.07R
ROCHELLE*      CLEAR     64  61  87 SW6       30.06R
DE KALB*       CLEAR     72  58  62 W12       30.05R
PERU*          CLEAR     70  60  70 W10       30.07R
$$

ILZ005-006-012>014-019>023-300400-
NORTHEAST ILLINOIS

CITY           SKY/WX    TMP DP  RH WIND       PRES   REMARKS
CHICAGO-OHARE  PTCLDY    75  57  53 W9        30.01R
CHICAGO-MIDWAY CLEAR     79  56  45 W7        30.02R HX  80
AURORA         CLEAR     67  59  75 W7        30.04R
LANSING*       CLEAR     72  54  53 W7        30.03S
JOLIET*        CLEAR     71  62  71 CALM      30.04R
WAUKEGAN       CLEAR     74  54  49 W6        29.99R
DUPAGE AIRPORT CLEAR     69  58  67 SW3       30.03R
KANKAKEE*      CLEAR     69  64  82 CALM      30.06R
WHEELING       CLEAR     76  52  43 W6        30.02R
MORRIS*        CLEAR     67  62  83 W6        30.04R
ROMEOVILLE*    CLEAR     71  58  64 W7        30.04R
NORTHERLY ISL    N/A     79  53  40 SW7         N/A
$$

LMZ740>746-300400-
SOUTHERN LAKE MICHIGAN

STATION/POSITION SKY/WX   TEMP    WIND        PRES    VSBY  WAVE
                          AIR SEA DIR/SP/G                  HT/PER
                          (F)     (DEG/KT/KT) (MB)    (MI)  (FT/S)
HARRISON CRIB              78     270/ 12/ 15   N/A
BURNHAM HARBOR             78     260/  6/ 10   N/A
CALUMET HARBOR             80                   N/A
BURNS HARBOR               77     280/ 10/ 12 1015.9R
MICHIGAN CITY              76     250/ 14/ 15   N/A
MICHIGAN CITY 6N           77 74  290/ 10/ 14   N/A           2/ 3
ST. JOSEPH                 77 75  300/ 14/ 16   N/A           3/ 3
$$

ILZ025>027-034>036-040-047-049-050-058-095>099-300400-
WEST-CENTRAL ILLINOIS

CITY           SKY/WX    TMP DP  RH WIND       PRES   REMARKS
QUINCY         CLEAR     72  63  73 W5        30.12R
GALESBURG*     CLEAR     70  62  74 W5        30.10R
MACOMB*        CLEAR     68  64  88 W5        30.12R
JACKSONVILLE*  CLEAR     69  64  85 W3        30.11R
PITTSFIELD*    CLEAR     71  64  81 CALM      30.13R
$$

ILZ028>032-037-038-041>044-048-051>054-059>061-300400-
CENTRAL ILLINOIS

CITY           SKY/WX    TMP DP  RH WIND       PRES   REMARKS
PONTIAC        CLEAR     68  64  89 W5        30.08R
BLOOMINGTON    CLEAR     71  62  73 W8        30.10R
DECATUR        PTCLDY    74  57  55 NW9       30.09R
PEORIA         CLEAR     73  61  65 W5        30.09R
LACON*         CLEAR     70  62  74 SW3       30.07R
LINCOLN*       CLEAR     75  60  59 CALM      30.08R
SPRINGFIELD    CLEAR     70  60  70 W7        30.10R
TAYLORVILLE    PTCLDY    68  59  73 NW6       30.10R
$$

ILZ033-039-045-046-055>057-062-063-300400-
EAST-CENTRAL ILLINOIS

CITY           SKY/WX    TMP DP  RH WIND       PRES   REMARKS
CHAMPAIGN      PTCLDY    67  63  87 NW6       30.08R
DANVILLE*      PTCLDY    68  62  80 NW6       30.04R
RANTOUL*       CLEAR     71  63  77 W6        30.08R
MATTOON        MOCLDY    68  60  75 NW6       30.07R
PARIS*         PTCLDY    69  64  84 NW6       30.07R
$$

ILZ079-100>102-300400-
SOUTHWEST ILLINOIS

CITY           SKY/WX    TMP DP  RH WIND       PRES   REMARKS
ALTON          CLEAR     73  61  64 NW7       30.11R
BELLEVILLE     CLEAR     74  67  78 NW5       30.08R
CAHOKIA*       CLEAR     79  61  53 N10       30.10R HX  80
SPARTA*        CLEAR     76  65  68 N6        30.10R
$$

ILZ064>066-069>071-074>076-080>082-084>086-088>090-092>094-300400-
SOUTH-CENTRAL ILLINOIS

CITY           SKY/WX    TMP DP  RH WIND       PRES   REMARKS
CARBONDALE     CLEAR     79  70  74 N7        30.07R HX  82
CAIRO*         PTCLDY    81  77  88 CALM      30.05R HX  88
EFFINGHAM*     MOCLDY    73  61  66 NW6       30.09R
MARION         PTCLDY    82  73  74 N5        30.08R HX  88
MT. VERNON     MOCLDY    79  64  61 N5        30.09R HX  81
CENTRALIA*     PTCLDY    77  62  59 N6        30.08R
SALEM*         PTCLDY    72  68  87 CALM      30.09R
METROPOLIS*    MOCLDY    81  80  98 N3        30.06R HX  90
$$

ILZ067-068-072-073-078-083-087-091-300400-
SOUTHEAST ILLINOIS

CITY           SKY/WX    TMP DP  RH WIND       PRES   REMARKS
LAWRENCEVILLE  MOCLDY    75  67  76 NW7       30.06R
FLORA*         MOCLDY    76  66  70 NW5       30.07R
FAIRFIELD*     CLOUDY    79  68  70 NW5       30.06R HX  81
HARRISBURG*    CLOUDY    82  76  83 N5        30.07R HX  88
ROBINSON*      MOCLDY    72  69  89 CALM      30.07R
CARMI*         CLOUDY    80  68  67 CALM      30.05R HX  82
$$

ABBREVIATIONS USED IN REMARKS
   TC - TEMPERATURE IN CELSIUS
  WCI - WIND CHILL INDEX
   HX - HEAT INDEX
  VSB - VISIBILITY
$$




USA.gov is the U.S. government's official web portal to all federal, state and local government web resources and services.